CAT 04/Thesee

operational
NORAD ID: 13011 Int'l Des: 1981-122 Owner: ESA Country: I-ESA
MEOELLIPTICALHEO_ELLIPTICAL

About CAT 04/Thesee

Description loading...

Live Position

Loading 3D Globe...

Upcoming Passes

Altitude History

Altitude vs Time

uPlot chart will show altitude changes over time

Two-Line Element Set

1 13011U 81122B 26061.39999623 .00002625 00000-0 71186-3 0 9996
2 13011 10.4103 198.0874 6514541 199.3557 114.9764 3.29146768357349
Epoch: Mar 2, 2026 • Age: 33 hours

Current Status

Altitude 24500.4 km
Velocity 2.22 km/s
Sub-Earth Point 5.05°N, 76.09°W
Launch Date Dec 20, 1981
Age 44.1 years
Type other

Technical Details

Classification Payload
Mass 661.00 kg
Dry Mass 661.00 kg
Total Mass 661.00 kg
Length 2.50 m
Diameter 1.50 m
Span 4.00 m
Shape Cyl + Cone
Manufacturer AERIT/CNEST
Bus Type CAT
Phase Status In Orbit
Owner/State ESA/I-ESA

Large Constellations

Loading constellations...